Previsão horária em Juodkrante

Hoje, 24 Junho, Quinta-feira

Tempo Temperatura Precipitação Vento Pressão Humidade
00:00 +15°C° 0 mm 2 m/s 762 mmHg 89%
01:00 +15°C° 0 mm 2 m/s 762 mmHg 89%
02:00 +15°C° 0 mm 1 m/s 762 mmHg 88%
03:00 +15°C° 0 mm 1 m/s 762 mmHg 87%
04:00 +15°C° 0 mm 1 m/s 762 mmHg 85%
05:00 +18°C° 0 mm 1 m/s 762 mmHg 78%
06:00 +19°C° 0 mm 2 m/s 762 mmHg 71%
07:00 +20°C° 0 mm 2 m/s 761 mmHg 65%
08:00 +23°C° 0 mm 2 m/s 761 mmHg 59%
09:00 +24°C° 0 mm 2 m/s 761 mmHg 54%
10:00 +26°C° 0 mm 1 m/s 761 mmHg 49%
11:00 +26°C° 0 mm 2 m/s 761 mmHg 51%
12:00 +26°C° 0 mm 2 m/s 761 mmHg 52%
13:00 +27°C° 0 mm 3 m/s 761 mmHg 54%
14:00 +26°C° 0.1 mm 3 m/s 760 mmHg 56%
15:00 +26°C° 0.1 mm 3 m/s 760 mmHg 59%
16:00 +26°C° 0.1 mm 3 m/s 759 mmHg 61%
17:00 +24°C° 0.2 mm 3 m/s 759 mmHg 70%
18:00 +21°C° 0.2 mm 4 m/s 759 mmHg 80%
19:00 +20°C° 0.2 mm 4 m/s 758 mmHg 89%
20:00 +19°C° 0 mm 4 m/s 758 mmHg 90%
21:00 +19°C° 0 mm 4 m/s 758 mmHg 90%
22:00 +18°C° 0 mm 4 m/s 758 mmHg 90%
23:00 +18°C° 0.1 mm 3 m/s 758 mmHg 92%

Amanhã, 25 Junho, Sexta-feira

Tempo Temperatura Precipitação Vento Pressão Humidade
00:00 +19°C° 0.1 mm 3 m/s 757 mmHg 93%
01:00 +19°C° 0.1 mm 3 m/s 757 mmHg 95%
02:00 +19°C° 0.1 mm 2 m/s 757 mmHg 95%
03:00 +19°C° 0.1 mm 2 m/s 756 mmHg 96%
04:00 +19°C° 0.1 mm 2 m/s 756 mmHg 97%
05:00 +20°C° 0 mm 2 m/s 756 mmHg 93%
06:00 +21°C° 0 mm 2 m/s 756 mmHg 89%
07:00 +21°C° 0 mm 2 m/s 756 mmHg 85%
08:00 +23°C° 0 mm 2 m/s 756 mmHg 80%
09:00 +25°C° 0 mm 2 m/s 757 mmHg 74%
10:00 +26°C° 0 mm 2 m/s 757 mmHg 69%
11:00 +25°C° 0.2 mm 3 m/s 757 mmHg 71%
12:00 +23°C° 0.2 mm 4 m/s 757 mmHg 73%
13:00 +23°C° 0.2 mm 5 m/s 757 mmHg 75%
14:00 +22°C° 0 mm 6 m/s 757 mmHg 75%
15:00 +22°C° 0 mm 6 m/s 758 mmHg 75%
16:00 +21°C° 0 mm 6 m/s 758 mmHg 75%
17:00 +20°C° 0 mm 6 m/s 758 mmHg 79%
18:00 +19°C° 0 mm 6 m/s 758 mmHg 82%
19:00 +17°C° 0 mm 5 m/s 758 mmHg 86%
20:00 +17°C° 0 mm 5 m/s 758 mmHg 89%
21:00 +16°C° 0 mm 5 m/s 758 mmHg 92%
22:00 +15°C° 0 mm 5 m/s 758 mmHg 96%
23:00 +15°C° 0 mm 5 m/s 758 mmHg 96%

Depois de amanhã, 26 Junho, Sábado

Tempo Temperatura Precipitação Vento Pressão Humidade
00:00 +15°C° 0 mm 5 m/s 758 mmHg 96%
01:00 +15°C° 0 mm 5 m/s 758 mmHg 96%
02:00 +15°C° 0 mm 5 m/s 758 mmHg 96%
03:00 +15°C° 0 mm 5 m/s 758 mmHg 96%
04:00 +15°C° 0 mm 5 m/s 758 mmHg 96%
05:00 +16°C° 0 mm 5 m/s 759 mmHg 91%
06:00 +17°C° 0 mm 5 m/s 759 mmHg 86%
07:00 +19°C° 0 mm 6 m/s 759 mmHg 81%
08:00 +20°C° 0 mm 6 m/s 759 mmHg 80%
09:00 +20°C° 0 mm 6 m/s 760 mmHg 78%
10:00 +21°C° 0 mm 6 m/s 760 mmHg 77%
11:00 +21°C° 0 mm 6 m/s 760 mmHg 74%
12:00 +21°C° 0 mm 6 m/s 760 mmHg 71%
13:00 +22°C° 0 mm 6 m/s 761 mmHg 68%
14:00 +21°C° 0 mm 6 m/s 761 mmHg 69%
15:00 +21°C° 0 mm 5 m/s 761 mmHg 70%
16:00 +21°C° 0 mm 5 m/s 761 mmHg 71%
17:00 +20°C° 0 mm 5 m/s 761 mmHg 75%
18:00 +19°C° 0 mm 4 m/s 761 mmHg 80%
19:00 +18°C° 0 mm 4 m/s 761 mmHg 85%
20:00 +17°C° 0 mm 4 m/s 761 mmHg 88%
21:00 +15°C° 0 mm 4 m/s 761 mmHg 92%
22:00 +14°C° 0 mm 3 m/s 761 mmHg 95%
23:00 +14°C° 0 mm 3 m/s 761 mmHg 95%

27 Junho, Domingo

Tempo Temperatura Precipitação Vento Pressão Humidade
00:00 +14°C° 0 mm 3 m/s 761 mmHg 95%
01:00 +14°C° 0 mm 3 m/s 761 mmHg 95%
02:00 +14°C° 0 mm 4 m/s 761 mmHg 95%
03:00 +14°C° 0 mm 4 m/s 761 mmHg 95%
04:00 +14°C° 0 mm 5 m/s 761 mmHg 95%
05:00 +16°C° 0 mm 5 m/s 761 mmHg 87%
06:00 +17°C° 0 mm 5 m/s 761 mmHg 79%
07:00 +19°C° 0 mm 6 m/s 761 mmHg 70%
08:00 +20°C° 0 mm 6 m/s 761 mmHg 68%
09:00 +21°C° 0 mm 6 m/s 761 mmHg 66%
10:00 +21°C° 0 mm 6 m/s 761 mmHg 63%
11:00 +22°C° 0 mm 5 m/s 761 mmHg 63%
12:00 +22°C° 0 mm 5 m/s 761 mmHg 63%
13:00 +22°C° 0 mm 4 m/s 761 mmHg 62%
14:00 +22°C° 0 mm 4 m/s 761 mmHg 62%
15:00 +22°C° 0 mm 4 m/s 761 mmHg 62%
16:00 +21°C° 0 mm 4 m/s 761 mmHg 63%
17:00 +20°C° 0 mm 4 m/s 761 mmHg 69%
18:00 +19°C° 0 mm 4 m/s 761 mmHg 75%
19:00 +18°C° 0 mm 3 m/s 761 mmHg 82%
20:00 +18°C° 0 mm 3 m/s 761 mmHg 86%
21:00 +17°C° 0 mm 4 m/s 761 mmHg 90%
22:00 +15°C° 0 mm 4 m/s 761 mmHg 95%
23:00 +15°C° 0 mm 4 m/s 761 mmHg 95%

28 Junho, Segunda-feira

Tempo Temperatura Precipitação Vento Pressão Humidade
00:00 +16°C° 0 mm 3 m/s 761 mmHg 94%
01:00 +16°C° 0 mm 3 m/s 761 mmHg 94%
02:00 +15°C° 0 mm 4 m/s 761 mmHg 94%
03:00 +15°C° 0 mm 4 m/s 761 mmHg 94%
04:00 +15°C° 0 mm 4 m/s 761 mmHg 93%
05:00 +18°C° 0 mm 4 m/s 761 mmHg 85%
06:00 +19°C° 0 mm 5 m/s 761 mmHg 77%
07:00 +21°C° 0 mm 5 m/s 761 mmHg 69%
08:00 +22°C° 0 mm 4 m/s 761 mmHg 66%
09:00 +22°C° 0 mm 4 m/s 761 mmHg 63%
10:00 +23°C° 0 mm 4 m/s 762 mmHg 59%
11:00 +24°C° 0 mm 3 m/s 762 mmHg 58%
12:00 +25°C° 0 mm 3 m/s 762 mmHg 57%
13:00 +25°C° 0 mm 3 m/s 762 mmHg 56%
14:00 +25°C° 0 mm 3 m/s 762 mmHg 57%
15:00 +24°C° 0 mm 3 m/s 762 mmHg 58%
16:00 +24°C° 0 mm 2 m/s 762 mmHg 59%
17:00 +23°C° 0 mm 2 m/s 762 mmHg 66%
18:00 +21°C° 0 mm 2 m/s 762 mmHg 73%
19:00 +20°C° 0 mm 2 m/s 761 mmHg 79%
20:00 +18°C° 0 mm 2 m/s 761 mmHg 82%
21:00 +17°C° 0 mm 2 m/s 762 mmHg 85%
22:00 +16°C° 0 mm 2 m/s 762 mmHg 87%
23:00 +16°C° 0 mm 2 m/s 762 mmHg 86%

29 Junho, Terça-feira

Tempo Temperatura Precipitação Vento Pressão Humidade
00:00 +16°C° 0 mm 2 m/s 762 mmHg 85%
01:00 +15°C° 0 mm 2 m/s 762 mmHg 85%
02:00 +15°C° 0 mm 2 m/s 762 mmHg 84%
03:00 +15°C° 0 mm 2 m/s 762 mmHg 83%
04:00 +16°C° 0 mm 3 m/s 762 mmHg 82%
05:00 +18°C° 0 mm 3 m/s 762 mmHg 75%
06:00 +20°C° 0 mm 3 m/s 762 mmHg 69%
07:00 +22°C° 0 mm 3 m/s 762 mmHg 62%
08:00 +24°C° 0 mm 3 m/s 762 mmHg 59%
09:00 +25°C° 0 mm 3 m/s 762 mmHg 57%
10:00 +27°C° 0 mm 3 m/s 762 mmHg 54%
11:00 +27°C° 0 mm 2 m/s 762 mmHg 53%
12:00 +28°C° 0 mm 2 m/s 762 mmHg 52%
13:00 +28°C° 0 mm 2 m/s 762 mmHg 51%
14:00 +28°C° 0 mm 2 m/s 762 mmHg 51%
15:00 +28°C° 0 mm 2 m/s 761 mmHg 51%
16:00 +28°C° 0 mm 2 m/s 761 mmHg 51%
17:00 +26°C° 0 mm 1 m/s 761 mmHg 58%
18:00 +25°C° 0 mm 1 m/s 761 mmHg 65%
19:00 +24°C° 0 mm 1 m/s 761 mmHg 72%
20:00 +22°C° 0 mm 1 m/s 761 mmHg 75%
21:00 +21°C° 0 mm 1 m/s 761 mmHg 77%
22:00 +19°C° 0 mm 1 m/s 761 mmHg 80%
23:00 +18°C° 0 mm 2 m/s 761 mmHg 81%
Mostrar mais

Necessitamos do seu Consentimento

A Meteoprog e os seus Fornecedores de Serviços podem armazenar e aceder a dados pessoais como cookies, identificadores do dispositivo ou outras tecnologias semelhantes existentes no seu dispositivo e processar estes dados para personalizar conteúdos e anúncios, assim como funcionalidades nas redes sociais e análise de tráfego.

  • Armazenar e/ou aceder a informações no seu dispositivo

    Os cookies, identificadores do dispositivo ou outras informações podem ser armazenados ou acedidos no seu dispositivo, para os fins acima indicados.

  • Anúncios e conteúdos personalizados, medição de anúncios e conteúdos, dados sobre o público-alvo e desenvolvimento de produtos

    Os anúncios e os conteúdos podem ser personalizados com base num perfil. Podem ser adicionados dados adicionais para uma maior personalização dos anúncios e dos conteúdos. A eficácia dos anúncios e dos conteúdos pode ser medida. Podem ser obtidas informações sobre o público que visualizou os anúncios e os conteúdos. Estes dados podem ser usados para desenvolver ou melhorar sistemas, softwares ou a experiência do utilizador.

Ao clicar em "Eu concordo”, permitirá o uso de cookies, identificadores do dispositivo e web beacons mencionados ou outras tecnologias semelhantes. As configurações do navegador do seu dispositivo podem ser alteradas.

Para certos fins, podem ser invocados interesses legítimos ao invés de consentimento. Pode ler mais informação sobre este assunto na nossa Política de Privacidade e Cookies.